GEFSNGP_prec_meanprecacc_252.txt.gz
Total_Precipitation_Accumulation
0.48 0.49 0.46 0.43 0.41 0.42 0.51 0.59 0.91 1.21 1.63 1.98 1.93 2.08 2.31 2.25 2.05 1.88 1.86 1.84 1.74 1.71 1.69 1.63 1.59 1.47 1.37 1.28 1.25 1.19 1.14 1.10 1.12 1.19 1.20 1.14 1.12 1.09 1.05 0.97 0.91 0.89 0.89 0.83
0.46 0.41 0.44 0.48 0.51 0.47 0.51 0.64 0.92 1.28 1.78 1.93 1.97 2.03 2.14 2.24 2.13 1.97 1.97 2.04 2.07 2.06 2.00 1.92 1.82 1.66 1.50 1.39 1.28 1.20 1.19 1.14 1.13 1.14 1.10 1.07 1.07 1.03 1.01 0.95 0.92 0.89 0.86 0.83
0.56 0.40 0.61 0.93 0.79 0.71 0.71 0.81 1.03 1.37 1.61 1.64 1.75 1.95 2.02 2.10 2.22 2.15 2.23 2.36 2.43 2.38 2.28 2.12 2.00 1.90 1.74 1.57 1.43 1.36 1.30 1.20 1.15 1.10 1.01 0.95 0.89 0.88 0.93 0.93 0.87 0.82 0.79 0.79
0.66 0.73 1.25 1.23 0.81 0.77 0.87 1.01 1.09 1.16 1.21 1.44 1.66 1.80 1.85 2.05 2.29 2.32 2.31 2.26 2.30 2.26 2.26 2.15 2.03 1.92 1.77 1.57 1.46 1.34 1.25 1.14 1.08 1.02 0.96 0.93 0.92 0.90 0.89 0.88 0.82 0.82 0.82 0.80
0.84 1.15 1.32 1.26 0.88 0.88 1.07 1.36 1.17 1.17 1.16 1.31 1.41 1.59 1.93 2.01 2.14 2.34 2.22 2.12 2.17 2.21 2.22 2.17 2.07 1.88 1.71 1.55 1.40 1.32 1.21 1.05 0.95 0.89 0.83 0.81 0.85 0.85 0.83 0.81 0.76 0.72 0.71 0.73
1.02 1.36 1.60 1.48 0.87 0.71 1.09 1.93 1.49 1.34 1.32 1.32 1.45 1.85 1.97 1.81 1.79 1.88 1.96 2.05 2.15 2.23 2.27 2.19 2.09 1.80 1.62 1.45 1.27 1.14 0.98 0.85 0.81 0.81 0.75 0.73 0.73 0.74 0.72 0.73 0.72 0.67 0.65 0.68
1.14 1.55 1.69 1.09 0.68 0.76 1.54 1.98 1.60 1.49 1.39 1.41 1.60 1.75 1.59 1.50 1.59 1.72 1.87 2.00 2.07 2.06 2.04 2.02 1.93 1.70 1.56 1.40 1.23 1.01 0.81 0.73 0.77 0.76 0.68 0.64 0.66 0.67 0.66 0.63 0.65 0.63 0.62 0.65
1.32 1.70 1.83 0.91 0.72 1.06 1.35 1.18 1.15 1.17 1.13 1.16 1.24 1.29 1.33 1.38 1.43 1.48 1.60 1.76 1.86 1.88 1.87 1.76 1.65 1.51 1.39 1.26 1.06 0.86 0.75 0.71 0.75 0.75 0.55 0.47 0.57 0.59 0.60 0.65 0.64 0.62 0.63 0.61
1.51 1.78 1.44 0.92 0.87 0.86 0.92 0.95 0.92 0.97 0.94 0.95 1.03 1.10 1.22 1.36 1.41 1.42 1.39 1.50 1.54 1.46 1.38 1.39 1.36 1.24 1.14 1.04 0.88 0.77 0.73 0.73 0.71 0.66 0.55 0.49 0.54 0.56 0.60 0.64 0.62 0.55 0.57 0.56
1.33 1.40 1.15 0.88 0.80 0.74 0.64 0.64 0.69 0.84 0.87 0.84 0.83 0.82 0.95 1.08 1.18 1.23 1.20 1.18 1.19 1.16 1.07 1.03 1.03 0.98 0.90 0.77 0.74 0.74 0.76 0.75 0.72 0.66 0.56 0.49 0.51 0.48 0.49 0.52 0.52 0.49 0.50 0.51
1.39 1.40 1.19 1.00 0.84 0.71 0.64 0.62 0.68 0.72 0.70 0.66 0.61 0.62 0.66 0.79 0.88 0.93 0.93 0.89 0.87 0.93 0.89 0.78 0.75 0.74 0.71 0.65 0.63 0.72 0.72 0.67 0.64 0.56 0.53 0.52 0.46 0.35 0.33 0.34 0.33 0.37 0.43 0.42
1.46 1.26 1.19 1.08 0.84 0.67 0.63 0.63 0.59 0.55 0.52 0.54 0.53 0.53 0.56 0.68 0.76 0.78 0.78 0.75 0.77 0.80 0.76 0.70 0.67 0.64 0.59 0.52 0.52 0.62 0.67 0.63 0.56 0.49 0.48 0.45 0.48 0.38 0.29 0.26 0.24 0.23 0.25 0.25
0.94 0.80 0.80 0.75 0.67 0.64 0.55 0.49 0.48 0.45 0.41 0.42 0.43 0.42 0.45 0.53 0.57 0.59 0.64 0.65 0.70 0.71 0.66 0.60 0.59 0.60 0.60 0.53 0.47 0.50 0.54 0.53 0.50 0.45 0.43 0.41 0.44 0.47 0.43 0.30 0.23 0.23 0.24 0.24
0.68 0.70 0.74 0.62 0.50 0.44 0.37 0.34 0.35 0.33 0.34 0.36 0.35 0.32 0.34 0.42 0.45 0.50 0.57 0.57 0.58 0.53 0.51 0.48 0.43 0.45 0.47 0.42 0.38 0.33 0.35 0.34 0.36 0.39 0.40 0.40 0.37 0.36 0.36 0.38 0.38 0.35 0.30 0.27
0.58 0.55 0.56 0.44 0.31 0.30 0.29 0.26 0.29 0.34 0.32 0.32 0.29 0.26 0.26 0.35 0.43 0.46 0.44 0.45 0.47 0.42 0.41 0.40 0.36 0.33 0.33 0.31 0.28 0.25 0.26 0.29 0.28 0.29 0.33 0.34 0.32 0.32 0.32 0.35 0.37 0.38 0.34 0.29
0.47 0.39 0.32 0.30 0.28 0.27 0.28 0.28 0.27 0.29 0.28 0.29 0.28 0.26 0.25 0.30 0.38 0.40 0.37 0.37 0.40 0.36 0.32 0.32 0.32 0.26 0.25 0.24 0.22 0.22 0.19 0.17 0.18 0.21 0.24 0.26 0.25 0.26 0.27 0.28 0.31 0.33 0.33 0.30
0.45 0.41 0.36 0.33 0.26 0.25 0.27 0.29 0.26 0.22 0.21 0.25 0.26 0.22 0.22 0.27 0.34 0.37 0.38 0.34 0.30 0.27 0.23 0.23 0.25 0.22 0.22 0.21 0.17 0.15 0.14 0.12 0.13 0.14 0.16 0.16 0.15 0.16 0.19 0.21 0.26 0.31 0.29 0.26
0.33 0.30 0.30 0.31 0.22 0.20 0.22 0.21 0.21 0.18 0.16 0.18 0.20 0.22 0.23 0.29 0.33 0.33 0.32 0.25 0.22 0.22 0.20 0.18 0.18 0.20 0.21 0.19 0.15 0.12 0.10 0.10 0.12 0.13 0.13 0.12 0.12 0.14 0.17 0.19 0.22 0.26 0.29 0.30
0.22 0.21 0.22 0.23 0.19 0.19 0.21 0.19 0.16 0.12 0.11 0.16 0.20 0.24 0.26 0.26 0.26 0.25 0.23 0.22 0.21 0.22 0.20 0.18 0.19 0.20 0.20 0.17 0.14 0.11 0.10 0.11 0.13 0.14 0.13 0.12 0.13 0.15 0.16 0.17 0.19 0.22 0.24 0.29
0.17 0.17 0.18 0.19 0.18 0.18 0.17 0.12 0.11 0.11 0.13 0.17 0.18 0.19 0.24 0.23 0.22 0.23 0.22 0.22 0.19 0.17 0.14 0.13 0.15 0.18 0.19 0.16 0.13 0.10 0.10 0.12 0.15 0.15 0.12 0.12 0.12 0.13 0.15 0.16 0.18 0.21 0.23 0.26
0.17 0.18 0.18 0.18 0.17 0.16 0.14 0.12 0.13 0.14 0.15 0.16 0.13 0.14 0.17 0.18 0.19 0.22 0.22 0.22 0.18 0.14 0.13 0.13 0.11 0.11 0.12 0.12 0.11 0.10 0.11 0.11 0.11 0.12 0.13 0.14 0.13 0.13 0.14 0.16 0.16 0.16 0.18 0.20
0.24 0.25 0.21 0.19 0.18 0.16 0.15 0.14 0.13 0.13 0.13 0.13 0.12 0.13 0.15 0.17 0.19 0.20 0.19 0.17 0.15 0.13 0.11 0.11 0.09 0.09 0.09 0.07 0.06 0.07 0.09 0.10 0.10 0.09 0.09 0.11 0.13 0.13 0.13 0.14 0.15 0.15 0.15 0.16
0.31 0.31 0.24 0.23 0.21 0.20 0.18 0.13 0.11 0.11 0.12 0.11 0.11 0.12 0.15 0.17 0.19 0.22 0.20 0.15 0.13 0.13 0.11 0.09 0.10 0.09 0.07 0.05 0.05 0.06 0.06 0.07 0.08 0.08 0.08 0.09 0.10 0.10 0.09 0.10 0.12 0.14 0.13 0.14
0.32 0.33 0.26 0.24 0.24 0.29 0.25 0.17 0.15 0.15 0.15 0.13 0.13 0.13 0.14 0.16 0.18 0.19 0.18 0.18 0.17 0.14 0.11 0.12 0.14 0.12 0.08 0.06 0.05 0.05 0.05 0.05 0.05 0.05 0.06 0.08 0.09 0.08 0.09 0.10 0.11 0.12 0.12 0.12
0.37 0.35 0.29 0.29 0.31 0.31 0.26 0.21 0.18 0.17 0.15 0.14 0.14 0.14 0.14 0.14 0.14 0.16 0.16 0.15 0.17 0.16 0.13 0.13 0.15 0.13 0.10 0.08 0.07 0.06 0.06 0.07 0.07 0.06 0.06 0.07 0.08 0.07 0.09 0.11 0.10 0.10 0.10 0.10
0.47 0.42 0.35 0.32 0.30 0.27 0.26 0.24 0.24 0.23 0.20 0.17 0.16 0.16 0.16 0.15 0.14 0.15 0.15 0.15 0.14 0.13 0.12 0.13 0.14 0.13 0.10 0.09 0.08 0.07 0.08 0.09 0.09 0.09 0.07 0.07 0.07 0.07 0.09 0.09 0.09 0.10 0.10 0.10
0.52 0.45 0.39 0.31 0.25 0.23 0.26 0.28 0.25 0.23 0.23 0.22 0.20 0.18 0.19 0.19 0.15 0.15 0.15 0.14 0.14 0.13 0.14 0.16 0.17 0.15 0.12 0.09 0.08 0.08 0.08 0.08 0.07 0.08 0.08 0.09 0.07 0.07 0.08 0.10 0.10 0.11 0.11 0.11

GEFSNGP_prec_meanprecacc_258.txt.gz
Total_Precipitation_Accumulation
0.51 0.50 0.47 0.43 0.41 0.42 0.52 0.61 0.94 1.25 1.67 2.02 1.95 2.09 2.33 2.28 2.09 1.94 1.90 1.87 1.76 1.74 1.72 1.66 1.62 1.50 1.39 1.30 1.26 1.21 1.17 1.12 1.16 1.22 1.23 1.18 1.16 1.13 1.09 1.01 0.95 0.94 0.93 0.88
0.47 0.42 0.44 0.49 0.52 0.47 0.51 0.65 0.95 1.31 1.82 1.95 1.98 2.04 2.17 2.27 2.18 2.03 2.00 2.06 2.10 2.09 2.03 1.94 1.85 1.68 1.52 1.40 1.29 1.22 1.20 1.16 1.17 1.18 1.14 1.12 1.12 1.08 1.06 1.01 0.97 0.93 0.90 0.88
0.59 0.40 0.63 0.95 0.80 0.72 0.72 0.82 1.05 1.40 1.64 1.65 1.76 1.97 2.05 2.14 2.27 2.20 2.27 2.38 2.45 2.40 2.30 2.15 2.04 1.93 1.76 1.60 1.47 1.40 1.32 1.21 1.19 1.16 1.07 1.02 0.96 0.95 1.00 0.99 0.93 0.87 0.84 0.84
0.69 0.76 1.30 1.25 0.81 0.77 0.88 1.02 1.09 1.18 1.23 1.45 1.68 1.83 1.88 2.08 2.33 2.38 2.36 2.29 2.32 2.28 2.29 2.18 2.07 1.95 1.79 1.60 1.49 1.37 1.27 1.17 1.12 1.10 1.03 1.00 0.99 0.98 0.97 0.94 0.87 0.87 0.87 0.85
0.88 1.20 1.36 1.28 0.88 0.89 1.08 1.37 1.18 1.18 1.17 1.33 1.43 1.61 1.95 2.04 2.17 2.39 2.27 2.15 2.19 2.24 2.25 2.19 2.09 1.91 1.73 1.58 1.44 1.36 1.25 1.09 1.00 0.95 0.89 0.88 0.92 0.92 0.89 0.87 0.82 0.77 0.78 0.80
1.07 1.40 1.66 1.52 0.88 0.72 1.10 1.97 1.51 1.36 1.34 1.35 1.48 1.88 2.01 1.85 1.82 1.92 2.00 2.09 2.17 2.26 2.29 2.22 2.11 1.82 1.66 1.49 1.32 1.17 1.01 0.89 0.85 0.85 0.79 0.78 0.79 0.79 0.76 0.78 0.77 0.72 0.71 0.76
1.18 1.59 1.72 1.11 0.69 0.77 1.59 2.04 1.62 1.50 1.42 1.45 1.64 1.81 1.63 1.53 1.61 1.74 1.90 2.02 2.09 2.09 2.07 2.04 1.96 1.73 1.60 1.44 1.28 1.03 0.84 0.76 0.78 0.78 0.70 0.66 0.69 0.70 0.69 0.66 0.68 0.68 0.67 0.70
1.36 1.74 1.88 0.92 0.73 1.09 1.40 1.20 1.16 1.18 1.14 1.18 1.26 1.32 1.35 1.40 1.45 1.50 1.62 1.78 1.88 1.91 1.90 1.80 1.68 1.54 1.42 1.29 1.07 0.87 0.76 0.72 0.76 0.76 0.56 0.48 0.59 0.62 0.62 0.68 0.66 0.66 0.67 0.63
1.55 1.83 1.48 0.94 0.89 0.88 0.95 0.99 0.95 0.99 0.95 0.97 1.05 1.12 1.24 1.38 1.43 1.44 1.40 1.52 1.56 1.48 1.40 1.42 1.38 1.26 1.16 1.06 0.89 0.78 0.74 0.74 0.73 0.67 0.56 0.50 0.55 0.58 0.62 0.67 0.64 0.58 0.60 0.58
1.35 1.43 1.16 0.90 0.82 0.77 0.67 0.66 0.71 0.85 0.88 0.86 0.85 0.85 0.97 1.10 1.20 1.24 1.22 1.21 1.22 1.18 1.09 1.05 1.05 1.00 0.91 0.79 0.76 0.76 0.78 0.76 0.74 0.68 0.57 0.50 0.53 0.50 0.51 0.54 0.55 0.51 0.53 0.53
1.42 1.42 1.21 1.02 0.85 0.72 0.64 0.62 0.69 0.73 0.72 0.69 0.64 0.65 0.68 0.81 0.90 0.95 0.95 0.92 0.92 0.96 0.91 0.81 0.76 0.76 0.73 0.67 0.65 0.73 0.74 0.69 0.65 0.58 0.55 0.53 0.47 0.36 0.35 0.36 0.35 0.39 0.44 0.44
1.49 1.29 1.21 1.09 0.84 0.67 0.63 0.63 0.59 0.56 0.53 0.56 0.56 0.56 0.58 0.70 0.78 0.80 0.79 0.78 0.82 0.84 0.79 0.73 0.69 0.65 0.61 0.54 0.53 0.64 0.68 0.65 0.57 0.51 0.49 0.46 0.49 0.40 0.31 0.28 0.26 0.23 0.25 0.26
0.95 0.81 0.80 0.76 0.67 0.64 0.56 0.49 0.48 0.45 0.42 0.44 0.45 0.46 0.48 0.55 0.58 0.61 0.66 0.69 0.76 0.75 0.69 0.62 0.60 0.61 0.61 0.55 0.48 0.52 0.57 0.55 0.51 0.47 0.44 0.42 0.45 0.48 0.45 0.32 0.24 0.24 0.25 0.25
0.69 0.70 0.74 0.62 0.50 0.44 0.38 0.35 0.36 0.34 0.35 0.36 0.36 0.36 0.40 0.44 0.46 0.52 0.59 0.60 0.61 0.56 0.53 0.50 0.45 0.46 0.48 0.43 0.39 0.35 0.36 0.35 0.37 0.41 0.41 0.40 0.38 0.37 0.38 0.39 0.40 0.36 0.31 0.28
0.59 0.55 0.57 0.44 0.32 0.31 0.31 0.28 0.31 0.35 0.34 0.33 0.30 0.28 0.28 0.37 0.44 0.48 0.45 0.46 0.49 0.45 0.43 0.42 0.38 0.34 0.34 0.32 0.29 0.26 0.27 0.30 0.28 0.30 0.34 0.34 0.32 0.33 0.33 0.36 0.38 0.38 0.35 0.30
0.47 0.39 0.33 0.31 0.29 0.28 0.29 0.29 0.29 0.31 0.30 0.31 0.29 0.26 0.26 0.32 0.39 0.41 0.38 0.38 0.42 0.38 0.34 0.34 0.34 0.28 0.26 0.25 0.23 0.23 0.20 0.18 0.19 0.21 0.24 0.27 0.25 0.26 0.27 0.29 0.31 0.33 0.34 0.31
0.45 0.41 0.36 0.33 0.27 0.26 0.27 0.30 0.28 0.24 0.23 0.27 0.27 0.24 0.23 0.29 0.36 0.38 0.39 0.35 0.32 0.29 0.25 0.25 0.27 0.22 0.22 0.21 0.18 0.15 0.15 0.12 0.13 0.14 0.16 0.17 0.15 0.16 0.19 0.22 0.26 0.31 0.29 0.27
0.33 0.30 0.30 0.31 0.23 0.21 0.23 0.23 0.22 0.20 0.18 0.19 0.21 0.23 0.25 0.31 0.35 0.35 0.33 0.26 0.24 0.24 0.22 0.19 0.19 0.20 0.21 0.20 0.15 0.12 0.10 0.10 0.12 0.14 0.13 0.12 0.12 0.14 0.17 0.20 0.22 0.26 0.29 0.30
0.22 0.21 0.22 0.23 0.19 0.20 0.24 0.22 0.17 0.13 0.13 0.19 0.22 0.25 0.27 0.28 0.29 0.28 0.26 0.24 0.23 0.25 0.22 0.19 0.21 0.21 0.21 0.18 0.15 0.12 0.10 0.11 0.14 0.15 0.13 0.12 0.13 0.15 0.17 0.18 0.20 0.23 0.25 0.30
0.18 0.17 0.19 0.19 0.19 0.19 0.19 0.17 0.15 0.12 0.14 0.20 0.20 0.19 0.25 0.24 0.24 0.25 0.25 0.25 0.21 0.19 0.16 0.15 0.16 0.19 0.20 0.18 0.14 0.10 0.11 0.13 0.15 0.15 0.12 0.12 0.13 0.14 0.16 0.17 0.19 0.22 0.24 0.28
0.19 0.18 0.19 0.19 0.19 0.18 0.16 0.15 0.17 0.16 0.17 0.17 0.15 0.14 0.18 0.20 0.20 0.23 0.24 0.23 0.20 0.16 0.16 0.16 0.13 0.12 0.14 0.13 0.12 0.11 0.12 0.11 0.11 0.12 0.13 0.14 0.14 0.14 0.15 0.17 0.17 0.17 0.20 0.22
0.26 0.26 0.22 0.21 0.20 0.18 0.16 0.14 0.14 0.14 0.14 0.14 0.13 0.13 0.16 0.19 0.20 0.22 0.21 0.19 0.17 0.16 0.14 0.13 0.11 0.10 0.09 0.08 0.07 0.08 0.10 0.11 0.10 0.09 0.10 0.11 0.13 0.14 0.14 0.15 0.17 0.16 0.16 0.18
0.33 0.33 0.27 0.25 0.24 0.22 0.20 0.14 0.12 0.12 0.12 0.12 0.12 0.13 0.16 0.18 0.20 0.23 0.21 0.17 0.15 0.15 0.12 0.11 0.12 0.11 0.08 0.06 0.06 0.06 0.06 0.07 0.08 0.08 0.09 0.10 0.10 0.11 0.10 0.11 0.13 0.16 0.15 0.16
0.34 0.35 0.29 0.28 0.28 0.32 0.27 0.18 0.16 0.16 0.15 0.14 0.14 0.14 0.15 0.18 0.20 0.20 0.19 0.19 0.18 0.16 0.12 0.13 0.16 0.13 0.09 0.06 0.06 0.06 0.06 0.05 0.05 0.05 0.07 0.09 0.10 0.10 0.10 0.11 0.13 0.14 0.14 0.14
0.39 0.37 0.32 0.32 0.34 0.34 0.29 0.23 0.20 0.18 0.17 0.17 0.16 0.16 0.16 0.16 0.16 0.17 0.17 0.16 0.19 0.17 0.14 0.14 0.16 0.15 0.11 0.08 0.07 0.06 0.06 0.07 0.07 0.07 0.07 0.08 0.09 0.09 0.11 0.13 0.13 0.12 0.12 0.12
0.49 0.44 0.37 0.34 0.33 0.31 0.30 0.29 0.29 0.27 0.23 0.20 0.18 0.19 0.19 0.18 0.16 0.18 0.17 0.17 0.16 0.15 0.13 0.14 0.15 0.14 0.11 0.09 0.08 0.08 0.08 0.09 0.10 0.10 0.08 0.08 0.09 0.10 0.10 0.11 0.12 0.12 0.12 0.12
0.53 0.46 0.40 0.33 0.28 0.26 0.30 0.32 0.31 0.29 0.28 0.26 0.22 0.20 0.21 0.21 0.18 0.18 0.17 0.16 0.16 0.15 0.15 0.17 0.18 0.16 0.12 0.10 0.09 0.09 0.09 0.09 0.10 0.10 0.10 0.11 0.09 0.09 0.10 0.11 0.12 0.12 0.12 0.12

GEFSNGP_prec_meanprecacc_264.txt.gz
Total_Precipitation_Accumulation
0.53 0.51 0.49 0.45 0.42 0.42 0.52 0.62 0.95 1.27 1.68 2.04 1.97 2.11 2.36 2.31 2.12 1.96 1.91 1.89 1.78 1.77 1.75 1.70 1.66 1.54 1.42 1.32 1.28 1.22 1.18 1.13 1.17 1.24 1.25 1.20 1.19 1.16 1.11 1.04 0.99 0.97 0.96 0.90
0.49 0.43 0.46 0.51 0.53 0.48 0.52 0.65 0.96 1.32 1.83 1.97 1.99 2.07 2.19 2.31 2.21 2.05 2.02 2.08 2.11 2.11 2.06 1.98 1.89 1.71 1.54 1.42 1.31 1.23 1.21 1.17 1.18 1.19 1.15 1.14 1.13 1.09 1.08 1.02 0.98 0.96 0.93 0.89
0.61 0.42 0.65 0.98 0.82 0.73 0.73 0.82 1.07 1.42 1.66 1.67 1.79 2.00 2.07 2.17 2.29 2.22 2.28 2.40 2.47 2.42 2.33 2.17 2.06 1.95 1.78 1.61 1.48 1.41 1.33 1.22 1.20 1.17 1.08 1.04 0.97 0.96 1.01 1.01 0.95 0.90 0.85 0.85
0.71 0.79 1.33 1.28 0.84 0.79 0.90 1.03 1.12 1.21 1.26 1.48 1.71 1.87 1.92 2.12 2.36 2.40 2.38 2.30 2.34 2.31 2.31 2.21 2.09 1.97 1.81 1.61 1.50 1.38 1.28 1.17 1.13 1.10 1.04 1.02 1.01 1.00 0.99 0.96 0.91 0.91 0.88 0.86
0.90 1.23 1.39 1.31 0.91 0.92 1.11 1.39 1.21 1.22 1.21 1.37 1.49 1.68 2.02 2.10 2.21 2.42 2.30 2.17 2.21 2.26 2.27 2.22 2.11 1.93 1.75 1.60 1.46 1.37 1.26 1.10 1.00 0.96 0.90 0.90 0.95 0.96 0.92 0.90 0.85 0.80 0.80 0.83
1.09 1.43 1.69 1.55 0.91 0.75 1.14 2.01 1.53 1.40 1.39 1.40 1.52 1.95 2.08 1.91 1.86 1.95 2.02 2.11 2.19 2.28 2.31 2.24 2.13 1.84 1.67 1.51 1.34 1.19 1.03 0.91 0.87 0.87 0.81 0.81 0.84 0.84 0.81 0.83 0.83 0.77 0.74 0.78
1.21 1.62 1.75 1.12 0.70 0.79 1.61 2.07 1.64 1.53 1.45 1.49 1.69 1.85 1.69 1.59 1.66 1.77 1.93 2.06 2.13 2.12 2.10 2.06 1.97 1.74 1.63 1.46 1.30 1.05 0.86 0.78 0.80 0.80 0.73 0.70 0.74 0.75 0.75 0.73 0.76 0.75 0.72 0.73
1.39 1.78 1.91 0.94 0.74 1.10 1.41 1.21 1.18 1.20 1.17 1.20 1.30 1.35 1.39 1.45 1.49 1.54 1.66 1.83 1.93 1.96 1.93 1.82 1.71 1.57 1.45 1.32 1.10 0.90 0.78 0.74 0.78 0.78 0.58 0.51 0.61 0.64 0.66 0.72 0.73 0.74 0.72 0.67
1.59 1.89 1.54 0.98 0.92 0.91 0.97 1.00 0.96 1.01 0.97 0.99 1.07 1.14 1.27 1.42 1.47 1.47 1.43 1.55 1.59 1.50 1.43 1.45 1.41 1.29 1.18 1.08 0.92 0.80 0.76 0.76 0.74 0.68 0.58 0.52 0.56 0.59 0.64 0.70 0.67 0.63 0.64 0.62
1.40 1.48 1.22 0.96 0.85 0.80 0.71 0.69 0.74 0.87 0.90 0.88 0.88 0.86 0.98 1.12 1.22 1.27 1.24 1.24 1.24 1.20 1.12 1.08 1.07 1.01 0.92 0.80 0.77 0.78 0.80 0.78 0.75 0.69 0.58 0.51 0.54 0.51 0.54 0.58 0.57 0.54 0.56 0.56
1.46 1.47 1.27 1.07 0.88 0.75 0.69 0.67 0.73 0.77 0.76 0.71 0.66 0.67 0.70 0.83 0.92 0.96 0.98 0.95 0.94 0.98 0.94 0.83 0.78 0.76 0.74 0.68 0.66 0.74 0.76 0.70 0.67 0.59 0.56 0.54 0.48 0.37 0.36 0.37 0.36 0.41 0.47 0.46
1.53 1.34 1.26 1.13 0.87 0.70 0.68 0.67 0.64 0.62 0.59 0.60 0.58 0.59 0.62 0.74 0.81 0.83 0.81 0.80 0.84 0.87 0.82 0.75 0.70 0.66 0.62 0.55 0.55 0.65 0.70 0.66 0.59 0.52 0.50 0.47 0.49 0.40 0.31 0.28 0.26 0.25 0.27 0.27
0.98 0.83 0.82 0.77 0.68 0.66 0.58 0.52 0.52 0.50 0.45 0.46 0.48 0.49 0.55 0.64 0.63 0.65 0.70 0.71 0.79 0.78 0.71 0.64 0.62 0.62 0.62 0.55 0.50 0.54 0.58 0.57 0.54 0.48 0.45 0.43 0.46 0.49 0.46 0.33 0.25 0.25 0.26 0.27
0.71 0.72 0.76 0.63 0.51 0.46 0.39 0.37 0.38 0.36 0.37 0.37 0.38 0.39 0.43 0.48 0.50 0.56 0.63 0.64 0.65 0.59 0.55 0.51 0.47 0.47 0.49 0.44 0.41 0.36 0.39 0.38 0.39 0.43 0.42 0.41 0.39 0.38 0.39 0.41 0.40 0.37 0.32 0.29
0.61 0.57 0.58 0.46 0.33 0.33 0.32 0.29 0.32 0.37 0.36 0.35 0.32 0.29 0.30 0.39 0.46 0.50 0.48 0.50 0.53 0.48 0.45 0.43 0.39 0.36 0.35 0.34 0.31 0.28 0.30 0.33 0.31 0.32 0.35 0.35 0.33 0.34 0.34 0.37 0.39 0.39 0.36 0.30
0.49 0.41 0.34 0.32 0.30 0.30 0.31 0.30 0.30 0.33 0.33 0.33 0.30 0.28 0.28 0.34 0.42 0.45 0.42 0.43 0.46 0.41 0.35 0.35 0.36 0.29 0.27 0.27 0.25 0.25 0.22 0.22 0.23 0.24 0.26 0.28 0.26 0.27 0.28 0.29 0.32 0.34 0.34 0.31
0.47 0.44 0.39 0.35 0.29 0.27 0.28 0.31 0.28 0.25 0.25 0.30 0.29 0.25 0.25 0.33 0.40 0.42 0.44 0.39 0.35 0.31 0.26 0.26 0.28 0.24 0.23 0.23 0.20 0.17 0.17 0.16 0.18 0.17 0.17 0.18 0.17 0.17 0.20 0.22 0.26 0.31 0.30 0.27
0.37 0.34 0.32 0.33 0.25 0.22 0.24 0.24 0.24 0.21 0.20 0.23 0.24 0.25 0.27 0.34 0.39 0.38 0.36 0.28 0.26 0.26 0.23 0.20 0.22 0.22 0.22 0.21 0.17 0.14 0.12 0.12 0.15 0.16 0.15 0.14 0.14 0.15 0.18 0.20 0.22 0.27 0.30 0.30
0.26 0.24 0.24 0.25 0.21 0.22 0.25 0.23 0.20 0.15 0.16 0.21 0.25 0.28 0.30 0.31 0.30 0.29 0.28 0.26 0.26 0.28 0.24 0.21 0.24 0.24 0.23 0.20 0.17 0.14 0.12 0.13 0.15 0.17 0.15 0.14 0.14 0.17 0.18 0.19 0.21 0.23 0.26 0.30
0.22 0.20 0.21 0.21 0.21 0.22 0.22 0.20 0.18 0.16 0.18 0.25 0.24 0.22 0.27 0.26 0.25 0.26 0.26 0.26 0.23 0.20 0.17 0.17 0.19 0.22 0.23 0.20 0.16 0.13 0.13 0.15 0.17 0.17 0.14 0.13 0.14 0.15 0.17 0.19 0.21 0.23 0.25 0.28
0.22 0.22 0.23 0.23 0.23 0.20 0.18 0.18 0.20 0.19 0.21 0.24 0.19 0.17 0.19 0.21 0.21 0.24 0.25 0.24 0.20 0.17 0.18 0.18 0.15 0.14 0.15 0.15 0.15 0.14 0.14 0.15 0.14 0.14 0.14 0.15 0.15 0.15 0.16 0.18 0.19 0.19 0.20 0.23
0.29 0.30 0.25 0.24 0.23 0.21 0.18 0.17 0.17 0.17 0.18 0.20 0.17 0.16 0.18 0.21 0.22 0.23 0.22 0.19 0.17 0.18 0.16 0.15 0.13 0.11 0.11 0.11 0.11 0.11 0.13 0.14 0.13 0.11 0.11 0.12 0.14 0.16 0.15 0.17 0.18 0.17 0.17 0.18
0.36 0.35 0.29 0.27 0.25 0.25 0.22 0.16 0.14 0.16 0.18 0.18 0.16 0.16 0.18 0.20 0.22 0.25 0.22 0.18 0.16 0.17 0.14 0.14 0.14 0.13 0.10 0.08 0.09 0.10 0.09 0.09 0.11 0.11 0.10 0.10 0.11 0.12 0.12 0.12 0.15 0.17 0.16 0.17
0.38 0.39 0.32 0.30 0.29 0.34 0.29 0.20 0.19 0.20 0.23 0.22 0.19 0.19 0.19 0.20 0.21 0.22 0.20 0.20 0.20 0.18 0.14 0.14 0.17 0.15 0.11 0.08 0.09 0.10 0.08 0.07 0.07 0.08 0.09 0.10 0.12 0.12 0.12 0.13 0.14 0.15 0.15 0.15
0.42 0.40 0.34 0.34 0.37 0.38 0.32 0.26 0.23 0.22 0.24 0.24 0.21 0.20 0.20 0.21 0.20 0.20 0.19 0.18 0.20 0.19 0.14 0.15 0.17 0.16 0.12 0.10 0.11 0.10 0.08 0.09 0.09 0.09 0.08 0.09 0.10 0.11 0.12 0.15 0.15 0.14 0.13 0.14
0.51 0.47 0.39 0.36 0.35 0.34 0.33 0.33 0.33 0.30 0.29 0.27 0.22 0.22 0.22 0.21 0.19 0.20 0.19 0.19 0.18 0.16 0.14 0.14 0.15 0.15 0.12 0.10 0.11 0.11 0.11 0.11 0.12 0.11 0.09 0.09 0.10 0.11 0.13 0.14 0.15 0.15 0.14 0.13
0.55 0.49 0.43 0.35 0.30 0.28 0.32 0.34 0.34 0.33 0.32 0.30 0.26 0.24 0.24 0.24 0.20 0.20 0.19 0.18 0.18 0.18 0.17 0.18 0.18 0.16 0.13 0.11 0.12 0.12 0.11 0.11 0.11 0.11 0.11 0.12 0.11 0.11 0.12 0.13 0.14 0.15 0.14 0.14

GEFSNGP_prec_meanprecacc_270.txt.gz
Total_Precipitation_Accumulation
0.53 0.52 0.51 0.47 0.43 0.43 0.53 0.63 0.96 1.27 1.68 2.04 1.97 2.12 2.37 2.33 2.15 1.98 1.94 1.92 1.80 1.78 1.78 1.73 1.68 1.55 1.43 1.34 1.29 1.23 1.19 1.15 1.19 1.25 1.26 1.21 1.20 1.17 1.11 1.04 0.99 0.98 0.97 0.92
0.49 0.43 0.47 0.52 0.54 0.49 0.53 0.66 0.96 1.33 1.83 1.97 2.00 2.07 2.20 2.32 2.23 2.06 2.04 2.10 2.12 2.12 2.07 2.00 1.91 1.73 1.55 1.43 1.32 1.24 1.22 1.18 1.19 1.20 1.16 1.15 1.15 1.12 1.08 1.02 0.99 0.97 0.96 0.92
0.61 0.42 0.65 0.98 0.83 0.74 0.74 0.83 1.08 1.43 1.67 1.68 1.80 2.01 2.09 2.19 2.31 2.23 2.30 2.42 2.49 2.43 2.33 2.18 2.07 1.98 1.80 1.64 1.50 1.42 1.34 1.23 1.20 1.18 1.09 1.05 0.98 0.97 1.02 1.01 0.95 0.90 0.87 0.87
0.71 0.79 1.34 1.28 0.85 0.80 0.91 1.05 1.14 1.23 1.27 1.49 1.72 1.88 1.94 2.13 2.38 2.42 2.39 2.32 2.35 2.32 2.31 2.22 2.10 1.99 1.83 1.65 1.52 1.40 1.29 1.18 1.13 1.11 1.05 1.03 1.02 1.01 1.00 0.97 0.92 0.92 0.89 0.88
0.90 1.23 1.40 1.32 0.92 0.93 1.13 1.42 1.23 1.24 1.23 1.37 1.50 1.69 2.03 2.11 2.23 2.44 2.31 2.19 2.23 2.28 2.29 2.23 2.12 1.94 1.77 1.62 1.48 1.39 1.28 1.11 1.01 0.97 0.91 0.91 0.96 0.97 0.94 0.92 0.87 0.82 0.82 0.85
1.10 1.44 1.69 1.55 0.92 0.76 1.15 2.04 1.56 1.43 1.42 1.42 1.54 1.97 2.10 1.92 1.87 1.96 2.04 2.13 2.21 2.31 2.34 2.25 2.14 1.85 1.68 1.53 1.36 1.21 1.04 0.93 0.89 0.90 0.83 0.83 0.85 0.85 0.83 0.84 0.85 0.79 0.77 0.80
1.22 1.64 1.77 1.13 0.71 0.80 1.62 2.08 1.66 1.55 1.49 1.53 1.74 1.89 1.72 1.61 1.68 1.79 1.95 2.08 2.16 2.15 2.14 2.09 1.99 1.75 1.64 1.47 1.31 1.07 0.88 0.80 0.83 0.84 0.77 0.74 0.76 0.77 0.77 0.74 0.77 0.78 0.74 0.75
1.41 1.80 1.93 0.95 0.75 1.11 1.42 1.22 1.18 1.21 1.19 1.23 1.34 1.40 1.43 1.49 1.52 1.56 1.67 1.85 1.95 2.00 1.97 1.85 1.73 1.58 1.46 1.33 1.12 0.92 0.81 0.78 0.82 0.82 0.63 0.55 0.65 0.67 0.68 0.74 0.74 0.76 0.75 0.69
1.61 1.91 1.56 1.00 0.93 0.92 0.99 1.01 0.97 1.02 0.99 1.01 1.09 1.16 1.29 1.44 1.50 1.50 1.46 1.58 1.62 1.53 1.46 1.48 1.44 1.31 1.20 1.10 0.93 0.82 0.78 0.79 0.78 0.74 0.65 0.58 0.61 0.63 0.67 0.72 0.69 0.65 0.67 0.65
1.41 1.49 1.23 0.97 0.87 0.82 0.73 0.72 0.76 0.89 0.92 0.89 0.89 0.88 1.00 1.13 1.24 1.29 1.25 1.25 1.26 1.22 1.15 1.12 1.11 1.04 0.94 0.82 0.79 0.79 0.80 0.79 0.77 0.73 0.65 0.59 0.60 0.56 0.58 0.61 0.60 0.57 0.58 0.59
1.47 1.47 1.28 1.08 0.90 0.77 0.72 0.70 0.77 0.80 0.79 0.74 0.67 0.68 0.71 0.85 0.94 0.98 0.99 0.96 0.96 1.00 0.96 0.85 0.79 0.78 0.76 0.69 0.67 0.75 0.76 0.71 0.69 0.62 0.59 0.57 0.52 0.40 0.39 0.40 0.40 0.45 0.51 0.50
1.55 1.35 1.28 1.15 0.88 0.72 0.70 0.69 0.66 0.64 0.62 0.64 0.62 0.61 0.64 0.76 0.83 0.84 0.83 0.82 0.87 0.89 0.85 0.77 0.72 0.68 0.63 0.56 0.56 0.66 0.70 0.67 0.61 0.55 0.53 0.49 0.51 0.42 0.33 0.30 0.29 0.27 0.30 0.30
1.01 0.86 0.85 0.80 0.70 0.68 0.59 0.54 0.54 0.51 0.47 0.49 0.51 0.52 0.59 0.69 0.69 0.70 0.75 0.76 0.83 0.82 0.75 0.67 0.65 0.65 0.65 0.57 0.51 0.56 0.60 0.59 0.56 0.52 0.49 0.46 0.49 0.52 0.48 0.34 0.26 0.26 0.27 0.29
0.76 0.77 0.80 0.66 0.53 0.47 0.41 0.38 0.39 0.37 0.39 0.39 0.39 0.40 0.47 0.51 0.54 0.60 0.68 0.68 0.69 0.64 0.62 0.58 0.52 0.52 0.53 0.48 0.44 0.40 0.43 0.42 0.44 0.48 0.47 0.45 0.42 0.42 0.42 0.42 0.41 0.37 0.32 0.30
0.67 0.63 0.64 0.50 0.36 0.35 0.34 0.31 0.34 0.39 0.39 0.38 0.33 0.30 0.31 0.40 0.48 0.52 0.49 0.52 0.54 0.50 0.47 0.47 0.44 0.41 0.40 0.38 0.35 0.32 0.33 0.37 0.34 0.36 0.40 0.40 0.37 0.38 0.37 0.38 0.40 0.40 0.37 0.32
0.55 0.46 0.39 0.37 0.33 0.31 0.33 0.32 0.31 0.35 0.35 0.35 0.33 0.30 0.29 0.35 0.43 0.46 0.43 0.45 0.48 0.43 0.37 0.38 0.38 0.32 0.30 0.29 0.27 0.27 0.24 0.24 0.25 0.26 0.29 0.32 0.31 0.33 0.33 0.32 0.33 0.35 0.35 0.33
0.54 0.50 0.43 0.39 0.33 0.29 0.31 0.33 0.29 0.26 0.27 0.31 0.30 0.26 0.27 0.34 0.41 0.44 0.45 0.40 0.37 0.34 0.30 0.30 0.31 0.26 0.25 0.24 0.21 0.18 0.18 0.18 0.21 0.20 0.20 0.21 0.20 0.21 0.24 0.25 0.28 0.32 0.31 0.29
0.44 0.42 0.38 0.37 0.29 0.26 0.27 0.27 0.26 0.23 0.22 0.24 0.25 0.27 0.29 0.36 0.40 0.38 0.36 0.29 0.27 0.29 0.26 0.22 0.24 0.25 0.24 0.22 0.19 0.16 0.15 0.16 0.19 0.20 0.17 0.16 0.15 0.16 0.20 0.22 0.23 0.28 0.31 0.33
0.33 0.32 0.31 0.30 0.24 0.25 0.28 0.27 0.23 0.17 0.17 0.23 0.27 0.30 0.32 0.32 0.33 0.31 0.29 0.28 0.28 0.30 0.25 0.22 0.25 0.25 0.24 0.21 0.18 0.15 0.15 0.15 0.18 0.21 0.17 0.16 0.16 0.18 0.19 0.20 0.22 0.24 0.27 0.31
0.26 0.26 0.26 0.26 0.25 0.26 0.26 0.24 0.22 0.19 0.21 0.27 0.26 0.24 0.29 0.28 0.28 0.29 0.28 0.27 0.23 0.21 0.18 0.18 0.21 0.23 0.24 0.22 0.19 0.15 0.15 0.17 0.19 0.20 0.18 0.16 0.15 0.16 0.18 0.19 0.21 0.24 0.26 0.29
0.26 0.26 0.28 0.29 0.28 0.25 0.22 0.22 0.24 0.23 0.25 0.27 0.21 0.18 0.22 0.24 0.24 0.26 0.27 0.26 0.22 0.19 0.20 0.21 0.17 0.16 0.17 0.17 0.17 0.17 0.17 0.16 0.15 0.16 0.16 0.17 0.17 0.16 0.17 0.18 0.19 0.19 0.21 0.23
0.35 0.34 0.30 0.29 0.28 0.24 0.20 0.20 0.20 0.20 0.21 0.22 0.18 0.17 0.20 0.23 0.24 0.25 0.24 0.21 0.19 0.19 0.19 0.18 0.16 0.13 0.13 0.12 0.13 0.14 0.16 0.17 0.15 0.13 0.13 0.14 0.16 0.17 0.16 0.17 0.18 0.17 0.17 0.19
0.41 0.38 0.31 0.29 0.28 0.27 0.24 0.18 0.16 0.18 0.20 0.19 0.17 0.18 0.19 0.22 0.24 0.27 0.25 0.20 0.18 0.18 0.16 0.16 0.17 0.15 0.12 0.10 0.11 0.12 0.11 0.12 0.14 0.13 0.12 0.12 0.13 0.13 0.12 0.13 0.15 0.17 0.17 0.17
0.42 0.42 0.34 0.32 0.31 0.36 0.31 0.22 0.21 0.22 0.24 0.24 0.22 0.22 0.22 0.22 0.23 0.24 0.23 0.23 0.23 0.21 0.16 0.16 0.19 0.17 0.13 0.10 0.11 0.12 0.10 0.10 0.10 0.10 0.10 0.11 0.12 0.13 0.13 0.13 0.15 0.16 0.16 0.15
0.44 0.41 0.37 0.37 0.40 0.41 0.36 0.30 0.27 0.26 0.27 0.28 0.25 0.24 0.24 0.24 0.23 0.23 0.22 0.20 0.23 0.21 0.17 0.17 0.19 0.18 0.15 0.13 0.14 0.14 0.11 0.12 0.11 0.10 0.09 0.09 0.11 0.12 0.13 0.15 0.15 0.14 0.14 0.14
0.53 0.48 0.42 0.40 0.39 0.37 0.36 0.36 0.37 0.34 0.32 0.31 0.27 0.26 0.26 0.24 0.22 0.23 0.21 0.20 0.20 0.18 0.16 0.17 0.17 0.17 0.16 0.14 0.15 0.16 0.14 0.14 0.14 0.13 0.11 0.10 0.12 0.12 0.13 0.15 0.15 0.15 0.14 0.14
0.57 0.52 0.46 0.39 0.33 0.30 0.34 0.36 0.36 0.35 0.35 0.34 0.30 0.27 0.26 0.26 0.22 0.23 0.22 0.21 0.21 0.20 0.19 0.20 0.20 0.19 0.16 0.15 0.16 0.16 0.13 0.12 0.13 0.12 0.13 0.13 0.12 0.12 0.12 0.13 0.14 0.15 0.14 0.14

GEFSNGP_prec_meanprecacc_276.txt.gz
Total_Precipitation_Accumulation
0.53 0.52 0.51 0.48 0.44 0.44 0.54 0.64 0.98 1.29 1.69 2.04 1.98 2.12 2.38 2.34 2.17 2.00 1.96 1.94 1.81 1.80 1.79 1.74 1.70 1.57 1.44 1.35 1.31 1.24 1.21 1.17 1.21 1.27 1.28 1.23 1.22 1.19 1.14 1.06 1.00 1.00 0.99 0.94
0.50 0.43 0.47 0.52 0.54 0.49 0.54 0.67 0.98 1.35 1.85 1.98 2.00 2.08 2.21 2.33 2.25 2.09 2.07 2.12 2.13 2.13 2.09 2.02 1.94 1.75 1.56 1.45 1.33 1.25 1.24 1.20 1.21 1.22 1.18 1.17 1.17 1.14 1.10 1.04 1.00 0.98 0.97 0.93
0.62 0.43 0.66 0.99 0.83 0.74 0.75 0.84 1.09 1.45 1.68 1.68 1.81 2.02 2.10 2.19 2.32 2.25 2.32 2.43 2.50 2.44 2.35 2.22 2.10 2.00 1.82 1.65 1.51 1.44 1.36 1.25 1.23 1.20 1.11 1.07 1.00 0.99 1.04 1.03 0.97 0.91 0.88 0.90
0.72 0.80 1.34 1.29 0.85 0.81 0.92 1.05 1.15 1.25 1.30 1.50 1.73 1.89 1.95 2.14 2.39 2.43 2.40 2.33 2.37 2.33 2.33 2.25 2.13 2.01 1.84 1.66 1.54 1.42 1.31 1.20 1.15 1.13 1.06 1.05 1.04 1.03 1.03 1.00 0.95 0.95 0.92 0.93
0.92 1.24 1.40 1.33 0.93 0.93 1.14 1.43 1.25 1.27 1.26 1.40 1.51 1.70 2.05 2.12 2.24 2.45 2.33 2.21 2.25 2.30 2.31 2.26 2.14 1.95 1.78 1.64 1.50 1.42 1.30 1.12 1.02 0.99 0.93 0.94 0.98 1.00 0.97 0.95 0.92 0.88 0.88 0.90
1.11 1.45 1.70 1.57 0.92 0.76 1.16 2.06 1.58 1.46 1.45 1.44 1.55 1.98 2.11 1.93 1.89 1.97 2.05 2.15 2.24 2.33 2.37 2.28 2.16 1.86 1.69 1.54 1.37 1.22 1.06 0.94 0.91 0.92 0.85 0.85 0.88 0.87 0.85 0.86 0.86 0.82 0.79 0.83
1.24 1.66 1.78 1.14 0.71 0.81 1.65 2.10 1.67 1.58 1.52 1.56 1.76 1.91 1.74 1.62 1.69 1.81 1.97 2.10 2.18 2.18 2.16 2.11 2.01 1.77 1.65 1.48 1.32 1.07 0.89 0.81 0.84 0.85 0.79 0.75 0.78 0.79 0.79 0.75 0.78 0.79 0.76 0.76
1.43 1.82 1.95 0.95 0.76 1.13 1.44 1.23 1.19 1.23 1.21 1.25 1.36 1.42 1.45 1.50 1.54 1.58 1.69 1.86 1.97 2.01 1.99 1.88 1.75 1.59 1.47 1.34 1.12 0.92 0.81 0.78 0.83 0.84 0.64 0.56 0.66 0.69 0.70 0.75 0.76 0.77 0.77 0.71
1.63 1.93 1.58 1.01 0.94 0.93 0.99 1.02 0.98 1.03 1.00 1.03 1.11 1.18 1.31 1.46 1.52 1.52 1.48 1.60 1.64 1.56 1.48 1.50 1.45 1.32 1.21 1.11 0.94 0.82 0.78 0.79 0.79 0.75 0.67 0.59 0.63 0.64 0.69 0.74 0.71 0.67 0.69 0.67
1.42 1.51 1.24 0.98 0.88 0.83 0.74 0.72 0.77 0.90 0.93 0.91 0.92 0.90 1.01 1.14 1.25 1.30 1.27 1.26 1.28 1.24 1.17 1.14 1.13 1.05 0.95 0.83 0.79 0.80 0.81 0.80 0.78 0.74 0.66 0.60 0.61 0.57 0.59 0.63 0.62 0.59 0.60 0.61
1.48 1.49 1.29 1.08 0.90 0.78 0.73 0.71 0.78 0.82 0.80 0.75 0.70 0.71 0.73 0.86 0.95 0.99 1.00 0.98 0.97 1.01 0.97 0.86 0.80 0.79 0.77 0.70 0.68 0.76 0.77 0.72 0.70 0.62 0.59 0.58 0.53 0.42 0.40 0.41 0.42 0.48 0.54 0.54
1.58 1.37 1.30 1.16 0.89 0.73 0.71 0.71 0.68 0.66 0.64 0.65 0.64 0.64 0.67 0.78 0.85 0.86 0.84 0.83 0.88 0.91 0.86 0.78 0.73 0.69 0.64 0.56 0.57 0.67 0.71 0.68 0.62 0.56 0.53 0.50 0.52 0.43 0.35 0.32 0.30 0.29 0.33 0.34
1.04 0.89 0.87 0.82 0.72 0.70 0.61 0.55 0.56 0.53 0.48 0.50 0.52 0.53 0.61 0.72 0.73 0.73 0.77 0.78 0.85 0.83 0.76 0.69 0.66 0.67 0.66 0.59 0.53 0.57 0.62 0.61 0.58 0.54 0.50 0.48 0.51 0.54 0.50 0.36 0.27 0.27 0.29 0.31
0.79 0.80 0.83 0.69 0.56 0.50 0.43 0.40 0.41 0.39 0.40 0.41 0.41 0.42 0.47 0.52 0.56 0.62 0.70 0.71 0.71 0.66 0.64 0.62 0.56 0.55 0.57 0.52 0.47 0.42 0.45 0.43 0.45 0.50 0.50 0.47 0.44 0.45 0.45 0.46 0.44 0.39 0.34 0.33
0.69 0.66 0.68 0.53 0.39 0.38 0.37 0.33 0.37 0.41 0.40 0.40 0.35 0.32 0.33 0.41 0.49 0.54 0.51 0.54 0.56 0.52 0.49 0.48 0.46 0.43 0.43 0.42 0.39 0.35 0.36 0.39 0.36 0.37 0.41 0.41 0.39 0.39 0.39 0.42 0.44 0.43 0.39 0.34
0.57 0.49 0.42 0.40 0.37 0.35 0.36 0.35 0.35 0.38 0.37 0.37 0.34 0.31 0.31 0.36 0.45 0.49 0.46 0.47 0.50 0.45 0.39 0.39 0.40 0.34 0.32 0.31 0.30 0.29 0.26 0.25 0.26 0.26 0.30 0.33 0.33 0.35 0.35 0.35 0.37 0.38 0.37 0.34
0.58 0.54 0.47 0.43 0.37 0.34 0.35 0.37 0.34 0.30 0.30 0.34 0.32 0.28 0.28 0.35 0.43 0.45 0.47 0.43 0.39 0.36 0.31 0.31 0.33 0.28 0.26 0.26 0.24 0.20 0.19 0.19 0.22 0.21 0.22 0.22 0.21 0.22 0.26 0.28 0.30 0.34 0.33 0.31
0.48 0.45 0.42 0.42 0.34 0.31 0.31 0.31 0.29 0.26 0.25 0.28 0.28 0.29 0.31 0.38 0.42 0.41 0.39 0.31 0.30 0.31 0.27 0.23 0.26 0.27 0.26 0.24 0.21 0.17 0.17 0.17 0.20 0.21 0.18 0.17 0.16 0.18 0.22 0.24 0.25 0.29 0.32 0.34
0.35 0.34 0.34 0.34 0.29 0.29 0.32 0.30 0.25 0.20 0.21 0.27 0.31 0.35 0.37 0.37 0.36 0.34 0.32 0.31 0.32 0.34 0.29 0.24 0.28 0.29 0.27 0.23 0.21 0.18 0.17 0.17 0.20 0.22 0.18 0.17 0.17 0.19 0.20 0.21 0.23 0.26 0.28 0.33
0.29 0.28 0.29 0.29 0.28 0.28 0.29 0.26 0.24 0.22 0.24 0.30 0.30 0.29 0.34 0.34 0.32 0.33 0.31 0.31 0.27 0.24 0.21 0.21 0.24 0.26 0.27 0.25 0.22 0.18 0.18 0.19 0.20 0.21 0.19 0.16 0.16 0.18 0.19 0.21 0.23 0.26 0.28 0.31
0.29 0.29 0.31 0.32 0.31 0.27 0.25 0.24 0.26 0.26 0.28 0.30 0.25 0.23 0.26 0.28 0.26 0.29 0.30 0.30 0.26 0.23 0.25 0.26 0.22 0.20 0.20 0.21 0.22 0.21 0.20 0.19 0.17 0.17 0.17 0.18 0.17 0.17 0.18 0.20 0.21 0.21 0.23 0.24
0.37 0.37 0.33 0.33 0.32 0.28 0.23 0.23 0.22 0.22 0.23 0.24 0.21 0.20 0.22 0.25 0.26 0.27 0.27 0.24 0.23 0.23 0.24 0.25 0.22 0.18 0.17 0.17 0.17 0.17 0.18 0.19 0.17 0.15 0.14 0.15 0.17 0.17 0.16 0.18 0.19 0.19 0.18 0.19
0.43 0.41 0.35 0.33 0.32 0.31 0.27 0.19 0.17 0.19 0.21 0.21 0.19 0.20 0.21 0.23 0.25 0.28 0.27 0.22 0.20 0.21 0.20 0.20 0.21 0.19 0.16 0.14 0.14 0.14 0.13 0.14 0.16 0.15 0.14 0.13 0.14 0.14 0.13 0.14 0.16 0.18 0.17 0.18
0.45 0.45 0.36 0.34 0.33 0.39 0.34 0.25 0.23 0.23 0.26 0.25 0.23 0.23 0.23 0.24 0.26 0.27 0.25 0.25 0.24 0.22 0.18 0.19 0.22 0.20 0.16 0.12 0.13 0.14 0.12 0.12 0.12 0.12 0.12 0.12 0.14 0.14 0.14 0.14 0.15 0.16 0.16 0.16
0.46 0.44 0.39 0.39 0.43 0.45 0.40 0.34 0.29 0.27 0.29 0.29 0.26 0.26 0.25 0.25 0.25 0.26 0.24 0.22 0.24 0.23 0.18 0.20 0.23 0.21 0.18 0.16 0.17 0.16 0.13 0.14 0.13 0.13 0.12 0.12 0.14 0.14 0.14 0.16 0.16 0.15 0.15 0.15
0.55 0.51 0.45 0.43 0.42 0.42 0.40 0.40 0.40 0.36 0.34 0.33 0.29 0.27 0.26 0.25 0.24 0.25 0.23 0.22 0.21 0.20 0.18 0.18 0.20 0.21 0.19 0.18 0.19 0.19 0.17 0.16 0.16 0.16 0.14 0.13 0.14 0.15 0.15 0.16 0.16 0.16 0.15 0.15
0.58 0.54 0.49 0.42 0.38 0.35 0.38 0.40 0.39 0.38 0.37 0.36 0.32 0.28 0.27 0.27 0.23 0.24 0.23 0.22 0.22 0.21 0.20 0.22 0.23 0.24 0.21 0.20 0.22 0.21 0.17 0.15 0.15 0.15 0.16 0.16 0.15 0.14 0.15 0.15 0.16 0.17 0.15 0.15

GEFSNGP_prec_meanprecacc_282.txt.gz
Total_Precipitation_Accumulation
0.55 0.52 0.51 0.48 0.45 0.45 0.55 0.66 1.01 1.31 1.72 2.06 2.00 2.14 2.39 2.36 2.19 2.03 2.01 1.99 1.90 1.91 1.86 1.78 1.74 1.61 1.46 1.36 1.31 1.26 1.22 1.18 1.23 1.30 1.31 1.27 1.26 1.24 1.19 1.12 1.05 1.04 1.03 0.96
0.50 0.44 0.48 0.53 0.54 0.49 0.54 0.67 0.99 1.36 1.87 1.99 2.01 2.08 2.21 2.34 2.27 2.11 2.11 2.16 2.17 2.18 2.14 2.07 1.98 1.78 1.58 1.46 1.34 1.26 1.25 1.22 1.23 1.24 1.20 1.20 1.21 1.18 1.15 1.10 1.06 1.03 1.00 0.95
0.64 0.44 0.67 1.01 0.84 0.74 0.75 0.84 1.11 1.49 1.72 1.70 1.82 2.03 2.10 2.20 2.34 2.29 2.36 2.48 2.54 2.49 2.40 2.28 2.15 2.05 1.84 1.66 1.51 1.44 1.37 1.27 1.25 1.22 1.13 1.09 1.03 1.02 1.09 1.09 1.04 0.97 0.91 0.92
0.75 0.83 1.38 1.31 0.86 0.81 0.92 1.06 1.17 1.29 1.34 1.52 1.74 1.89 1.95 2.15 2.41 2.48 2.44 2.37 2.42 2.39 2.40 2.31 2.18 2.06 1.87 1.68 1.55 1.43 1.32 1.22 1.17 1.15 1.10 1.08 1.06 1.07 1.08 1.06 1.01 1.01 0.97 0.96
0.94 1.27 1.43 1.36 0.95 0.95 1.15 1.45 1.27 1.30 1.29 1.41 1.52 1.71 2.07 2.15 2.27 2.49 2.35 2.24 2.28 2.34 2.37 2.34 2.21 2.01 1.84 1.69 1.52 1.43 1.32 1.14 1.05 1.02 0.97 0.97 1.01 1.04 1.01 1.01 0.97 0.94 0.94 0.95
1.15 1.50 1.74 1.61 0.94 0.78 1.18 2.12 1.62 1.50 1.48 1.45 1.56 2.03 2.18 1.96 1.91 2.02 2.08 2.17 2.27 2.37 2.41 2.34 2.22 1.92 1.76 1.62 1.44 1.25 1.08 0.97 0.94 0.95 0.88 0.88 0.91 0.91 0.89 0.90 0.91 0.87 0.86 0.90
1.29 1.70 1.83 1.16 0.72 0.82 1.69 2.16 1.70 1.61 1.56 1.58 1.79 1.95 1.77 1.63 1.70 1.83 1.99 2.12 2.20 2.21 2.21 2.16 2.06 1.82 1.70 1.53 1.37 1.11 0.92 0.84 0.87 0.88 0.82 0.78 0.81 0.83 0.83 0.79 0.83 0.85 0.81 0.82
1.47 1.87 2.02 0.98 0.78 1.16 1.49 1.26 1.22 1.25 1.23 1.27 1.37 1.44 1.48 1.52 1.56 1.60 1.72 1.89 2.00 2.07 2.05 1.92 1.79 1.64 1.52 1.39 1.15 0.95 0.85 0.81 0.85 0.86 0.66 0.57 0.68 0.72 0.73 0.79 0.79 0.81 0.82 0.75
1.67 1.98 1.64 1.05 0.97 0.96 1.02 1.06 1.01 1.05 1.02 1.04 1.12 1.19 1.33 1.48 1.55 1.55 1.51 1.63 1.68 1.61 1.53 1.55 1.49 1.37 1.26 1.14 0.97 0.85 0.81 0.83 0.82 0.78 0.70 0.63 0.65 0.66 0.71 0.76 0.73 0.69 0.72 0.70
1.44 1.53 1.27 1.00 0.90 0.84 0.75 0.75 0.79 0.92 0.94 0.93 0.93 0.91 1.03 1.17 1.29 1.34 1.30 1.29 1.31 1.28 1.20 1.17 1.16 1.08 0.99 0.86 0.82 0.82 0.84 0.83 0.82 0.78 0.69 0.63 0.64 0.59 0.61 0.64 0.64 0.61 0.62 0.64
1.51 1.52 1.31 1.09 0.91 0.79 0.74 0.73 0.80 0.84 0.81 0.77 0.72 0.73 0.75 0.89 0.98 1.03 1.03 1.01 1.01 1.06 1.01 0.89 0.83 0.82 0.79 0.72 0.71 0.79 0.81 0.76 0.75 0.66 0.62 0.61 0.56 0.45 0.42 0.43 0.44 0.50 0.56 0.56
1.65 1.42 1.34 1.20 0.91 0.74 0.73 0.72 0.69 0.68 0.66 0.67 0.65 0.66 0.69 0.82 0.90 0.91 0.88 0.87 0.93 0.96 0.90 0.81 0.75 0.71 0.67 0.59 0.60 0.71 0.75 0.73 0.67 0.60 0.56 0.52 0.55 0.46 0.37 0.34 0.33 0.31 0.34 0.35
1.09 0.92 0.90 0.84 0.75 0.71 0.62 0.56 0.57 0.55 0.51 0.52 0.53 0.54 0.63 0.75 0.77 0.80 0.82 0.83 0.89 0.88 0.81 0.72 0.69 0.69 0.68 0.61 0.55 0.61 0.66 0.65 0.62 0.59 0.55 0.51 0.54 0.57 0.52 0.38 0.29 0.29 0.30 0.32
0.81 0.82 0.86 0.71 0.57 0.51 0.44 0.41 0.43 0.42 0.42 0.42 0.42 0.43 0.49 0.54 0.59 0.67 0.75 0.76 0.77 0.71 0.69 0.66 0.59 0.57 0.58 0.53 0.49 0.45 0.49 0.47 0.48 0.53 0.53 0.51 0.48 0.47 0.48 0.48 0.46 0.40 0.35 0.34
0.70 0.68 0.70 0.54 0.40 0.39 0.38 0.35 0.41 0.44 0.42 0.41 0.36 0.34 0.34 0.43 0.51 0.57 0.55 0.58 0.61 0.57 0.54 0.52 0.50 0.46 0.45 0.43 0.40 0.37 0.38 0.42 0.39 0.40 0.44 0.44 0.42 0.42 0.42 0.44 0.46 0.45 0.41 0.36
0.60 0.51 0.45 0.42 0.38 0.36 0.37 0.37 0.39 0.41 0.39 0.38 0.36 0.32 0.32 0.39 0.47 0.52 0.49 0.50 0.53 0.49 0.44 0.44 0.44 0.38 0.36 0.34 0.32 0.31 0.28 0.27 0.27 0.29 0.32 0.36 0.35 0.37 0.37 0.37 0.38 0.39 0.39 0.36
0.62 0.59 0.52 0.47 0.40 0.37 0.37 0.41 0.38 0.33 0.33 0.37 0.35 0.30 0.30 0.37 0.45 0.48 0.50 0.46 0.43 0.41 0.36 0.34 0.35 0.31 0.30 0.29 0.27 0.23 0.22 0.21 0.22 0.22 0.24 0.24 0.23 0.24 0.28 0.29 0.31 0.35 0.34 0.32
0.51 0.50 0.48 0.49 0.41 0.36 0.36 0.35 0.34 0.31 0.30 0.32 0.31 0.31 0.34 0.41 0.46 0.45 0.43 0.35 0.34 0.36 0.33 0.26 0.27 0.29 0.28 0.27 0.24 0.20 0.18 0.19 0.22 0.22 0.20 0.18 0.17 0.19 0.23 0.25 0.26 0.30 0.33 0.35
0.38 0.37 0.38 0.38 0.33 0.34 0.38 0.35 0.30 0.25 0.27 0.32 0.36 0.40 0.43 0.42 0.41 0.38 0.36 0.37 0.38 0.41 0.35 0.28 0.31 0.31 0.29 0.26 0.24 0.21 0.20 0.19 0.21 0.23 0.20 0.17 0.18 0.20 0.21 0.22 0.24 0.26 0.29 0.34
0.32 0.31 0.32 0.32 0.31 0.33 0.34 0.32 0.30 0.28 0.30 0.35 0.34 0.34 0.41 0.39 0.36 0.37 0.36 0.37 0.33 0.31 0.29 0.28 0.28 0.31 0.31 0.29 0.25 0.21 0.21 0.21 0.22 0.23 0.21 0.18 0.18 0.19 0.20 0.22 0.24 0.27 0.29 0.32
0.32 0.31 0.33 0.34 0.33 0.29 0.28 0.28 0.31 0.32 0.34 0.35 0.29 0.27 0.32 0.34 0.31 0.33 0.36 0.36 0.32 0.31 0.34 0.34 0.28 0.25 0.25 0.26 0.27 0.24 0.23 0.22 0.20 0.19 0.19 0.20 0.19 0.19 0.20 0.22 0.23 0.23 0.24 0.26
0.39 0.39 0.35 0.35 0.35 0.31 0.27 0.26 0.26 0.27 0.29 0.29 0.25 0.25 0.28 0.33 0.32 0.33 0.33 0.31 0.28 0.28 0.29 0.30 0.27 0.24 0.23 0.22 0.21 0.20 0.22 0.23 0.21 0.19 0.17 0.17 0.19 0.20 0.20 0.22 0.23 0.21 0.20 0.21
0.46 0.44 0.38 0.36 0.35 0.35 0.30 0.22 0.20 0.22 0.25 0.25 0.24 0.25 0.28 0.31 0.32 0.34 0.33 0.28 0.25 0.26 0.24 0.26 0.27 0.25 0.21 0.18 0.17 0.17 0.16 0.19 0.21 0.20 0.18 0.17 0.17 0.17 0.17 0.18 0.20 0.21 0.20 0.20
0.49 0.50 0.40 0.37 0.36 0.41 0.37 0.27 0.25 0.25 0.28 0.28 0.27 0.28 0.28 0.28 0.30 0.31 0.29 0.30 0.29 0.26 0.22 0.25 0.27 0.24 0.19 0.15 0.16 0.17 0.16 0.15 0.16 0.17 0.16 0.16 0.17 0.17 0.17 0.17 0.18 0.19 0.19 0.18
0.52 0.49 0.43 0.43 0.46 0.48 0.43 0.36 0.32 0.30 0.30 0.31 0.28 0.29 0.28 0.29 0.30 0.30 0.28 0.26 0.28 0.27 0.22 0.24 0.26 0.25 0.21 0.19 0.20 0.20 0.16 0.16 0.16 0.15 0.14 0.15 0.16 0.17 0.18 0.19 0.18 0.17 0.16 0.17
0.59 0.56 0.50 0.47 0.46 0.45 0.43 0.44 0.44 0.40 0.37 0.35 0.31 0.30 0.29 0.27 0.27 0.28 0.25 0.24 0.25 0.25 0.22 0.24 0.24 0.25 0.22 0.20 0.22 0.22 0.19 0.17 0.18 0.18 0.15 0.15 0.17 0.17 0.18 0.18 0.18 0.18 0.17 0.18
0.62 0.58 0.54 0.46 0.41 0.39 0.42 0.45 0.44 0.42 0.41 0.39 0.36 0.32 0.30 0.30 0.27 0.27 0.25 0.24 0.25 0.24 0.24 0.27 0.28 0.28 0.25 0.23 0.25 0.26 0.20 0.16 0.17 0.17 0.17 0.18 0.17 0.16 0.17 0.18 0.18 0.19 0.18 0.19

GEFSNGP_prec_meanprecacc_288.txt.gz
Total_Precipitation_Accumulation
0.56 0.53 0.52 0.49 0.46 0.46 0.57 0.68 1.03 1.33 1.74 2.09 2.03 2.18 2.44 2.42 2.25 2.09 2.10 2.14 2.07 2.11 2.02 1.92 1.85 1.69 1.55 1.43 1.37 1.31 1.27 1.21 1.24 1.31 1.33 1.29 1.28 1.26 1.21 1.14 1.07 1.06 1.06 1.00
0.51 0.45 0.49 0.54 0.56 0.51 0.55 0.69 1.00 1.38 1.89 2.01 2.03 2.11 2.24 2.36 2.30 2.16 2.16 2.22 2.25 2.36 2.32 2.23 2.14 1.92 1.69 1.53 1.39 1.30 1.28 1.24 1.24 1.26 1.23 1.22 1.23 1.20 1.16 1.12 1.10 1.06 1.03 0.99
0.65 0.46 0.70 1.03 0.87 0.77 0.77 0.87 1.14 1.51 1.75 1.72 1.84 2.05 2.14 2.23 2.36 2.33 2.41 2.53 2.58 2.53 2.48 2.38 2.27 2.23 2.06 1.78 1.59 1.51 1.41 1.30 1.26 1.23 1.16 1.12 1.04 1.03 1.10 1.11 1.08 1.02 0.95 0.95
0.77 0.85 1.41 1.34 0.88 0.84 0.96 1.11 1.20 1.32 1.38 1.56 1.77 1.93 2.00 2.20 2.44 2.50 2.47 2.40 2.46 2.41 2.43 2.35 2.24 2.17 2.07 1.87 1.69 1.50 1.37 1.25 1.19 1.17 1.11 1.10 1.08 1.08 1.09 1.08 1.04 1.05 1.01 0.99
0.97 1.31 1.45 1.38 0.97 0.98 1.19 1.53 1.36 1.39 1.38 1.49 1.57 1.75 2.12 2.19 2.30 2.51 2.38 2.26 2.31 2.38 2.40 2.37 2.26 2.08 1.94 1.84 1.72 1.57 1.38 1.19 1.08 1.05 1.00 1.00 1.03 1.05 1.02 1.02 0.99 0.96 0.96 0.97
1.22 1.56 1.80 1.65 0.96 0.81 1.22 2.18 1.66 1.54 1.54 1.51 1.62 2.09 2.22 2.00 1.95 2.06 2.11 2.20 2.30 2.41 2.45 2.39 2.27 1.97 1.82 1.70 1.57 1.40 1.18 1.05 0.99 0.98 0.91 0.91 0.94 0.94 0.92 0.92 0.93 0.90 0.89 0.93
1.35 1.77 1.88 1.19 0.74 0.84 1.72 2.20 1.72 1.62 1.58 1.61 1.82 2.00 1.81 1.68 1.76 1.91 2.04 2.17 2.25 2.28 2.28 2.23 2.13 1.87 1.76 1.60 1.45 1.19 0.98 0.92 0.94 0.92 0.84 0.80 0.83 0.85 0.87 0.83 0.86 0.88 0.85 0.85
1.53 1.94 2.06 1.00 0.80 1.18 1.52 1.29 1.24 1.26 1.25 1.30 1.40 1.47 1.51 1.56 1.62 1.67 1.77 1.96 2.07 2.13 2.13 2.01 1.87 1.70 1.59 1.45 1.22 1.01 0.89 0.86 0.90 0.92 0.69 0.60 0.70 0.73 0.76 0.84 0.85 0.86 0.85 0.78
1.71 2.03 1.68 1.08 1.00 0.99 1.06 1.08 1.03 1.07 1.04 1.07 1.16 1.23 1.35 1.52 1.60 1.60 1.55 1.69 1.75 1.68 1.60 1.63 1.57 1.44 1.32 1.19 1.02 0.90 0.86 0.87 0.85 0.83 0.74 0.66 0.68 0.69 0.73 0.79 0.78 0.76 0.76 0.71
1.49 1.58 1.31 1.04 0.93 0.88 0.78 0.77 0.82 0.96 0.98 0.96 0.96 0.94 1.06 1.20 1.33 1.38 1.35 1.34 1.38 1.37 1.29 1.27 1.25 1.17 1.07 0.93 0.88 0.87 0.87 0.87 0.86 0.82 0.74 0.69 0.70 0.64 0.65 0.67 0.66 0.64 0.65 0.66
1.58 1.58 1.37 1.16 0.96 0.83 0.78 0.76 0.83 0.88 0.85 0.80 0.75 0.76 0.78 0.92 1.01 1.07 1.10 1.07 1.08 1.15 1.13 0.99 0.93 0.92 0.89 0.80 0.77 0.83 0.85 0.81 0.79 0.70 0.67 0.67 0.62 0.51 0.48 0.46 0.47 0.53 0.59 0.58
1.77 1.50 1.42 1.27 0.96 0.77 0.76 0.76 0.73 0.72 0.68 0.70 0.67 0.67 0.70 0.83 0.92 0.94 0.93 0.94 0.99 1.02 0.96 0.88 0.82 0.78 0.73 0.64 0.65 0.76 0.79 0.76 0.69 0.63 0.59 0.56 0.59 0.51 0.42 0.39 0.37 0.36 0.39 0.39
1.19 1.01 0.98 0.91 0.81 0.77 0.67 0.61 0.64 0.60 0.54 0.54 0.56 0.56 0.64 0.76 0.79 0.82 0.85 0.87 0.95 0.93 0.85 0.77 0.73 0.73 0.72 0.64 0.59 0.64 0.69 0.66 0.63 0.60 0.57 0.54 0.57 0.60 0.57 0.42 0.33 0.32 0.35 0.36
0.87 0.90 0.94 0.78 0.64 0.59 0.51 0.45 0.48 0.46 0.45 0.44 0.44 0.45 0.51 0.56 0.62 0.70 0.79 0.80 0.82 0.76 0.73 0.71 0.64 0.61 0.61 0.56 0.52 0.48 0.51 0.49 0.50 0.54 0.55 0.54 0.50 0.49 0.50 0.51 0.49 0.43 0.38 0.36
0.74 0.73 0.77 0.62 0.47 0.46 0.45 0.39 0.43 0.46 0.45 0.44 0.39 0.36 0.37 0.48 0.56 0.62 0.61 0.63 0.65 0.61 0.59 0.57 0.56 0.52 0.50 0.47 0.44 0.40 0.41 0.44 0.40 0.41 0.45 0.46 0.44 0.44 0.44 0.46 0.48 0.47 0.43 0.37
0.63 0.55 0.50 0.50 0.45 0.42 0.44 0.45 0.45 0.45 0.43 0.43 0.41 0.36 0.36 0.44 0.54 0.58 0.55 0.54 0.58 0.53 0.48 0.50 0.51 0.44 0.42 0.39 0.36 0.34 0.31 0.29 0.29 0.31 0.34 0.38 0.38 0.40 0.41 0.40 0.41 0.42 0.41 0.37
0.66 0.63 0.56 0.54 0.49 0.44 0.43 0.47 0.44 0.41 0.42 0.44 0.41 0.35 0.34 0.43 0.52 0.54 0.55 0.50 0.47 0.45 0.40 0.39 0.43 0.38 0.35 0.34 0.31 0.26 0.25 0.24 0.26 0.25 0.26 0.27 0.26 0.27 0.31 0.33 0.35 0.38 0.36 0.34
0.54 0.52 0.51 0.54 0.49 0.44 0.43 0.42 0.41 0.40 0.38 0.39 0.37 0.36 0.38 0.46 0.51 0.48 0.45 0.38 0.38 0.39 0.36 0.30 0.33 0.36 0.34 0.32 0.28 0.24 0.22 0.23 0.25 0.25 0.23 0.21 0.20 0.21 0.24 0.27 0.28 0.33 0.36 0.38
0.40 0.39 0.42 0.44 0.39 0.40 0.43 0.40 0.37 0.33 0.33 0.38 0.41 0.44 0.47 0.47 0.45 0.41 0.39 0.40 0.41 0.44 0.38 0.32 0.36 0.37 0.36 0.32 0.29 0.25 0.24 0.24 0.26 0.27 0.23 0.21 0.21 0.22 0.23 0.24 0.26 0.28 0.31 0.36
0.35 0.34 0.36 0.38 0.35 0.36 0.38 0.36 0.33 0.31 0.34 0.39 0.39 0.39 0.46 0.45 0.41 0.40 0.39 0.40 0.37 0.36 0.33 0.32 0.32 0.36 0.37 0.35 0.31 0.26 0.25 0.26 0.27 0.28 0.25 0.22 0.22 0.23 0.24 0.26 0.28 0.31 0.34 0.36
0.35 0.35 0.37 0.39 0.38 0.33 0.32 0.33 0.34 0.34 0.35 0.37 0.32 0.31 0.36 0.39 0.36 0.38 0.39 0.39 0.35 0.34 0.38 0.38 0.33 0.30 0.32 0.33 0.33 0.29 0.28 0.27 0.26 0.25 0.25 0.25 0.23 0.23 0.24 0.26 0.27 0.28 0.29 0.31
0.43 0.43 0.39 0.42 0.42 0.36 0.32 0.32 0.30 0.29 0.30 0.31 0.27 0.28 0.33 0.37 0.37 0.38 0.38 0.34 0.30 0.32 0.33 0.35 0.33 0.29 0.29 0.29 0.26 0.26 0.27 0.27 0.25 0.24 0.22 0.22 0.23 0.24 0.24 0.26 0.28 0.27 0.25 0.26
0.51 0.49 0.43 0.46 0.43 0.40 0.36 0.28 0.24 0.24 0.27 0.27 0.26 0.28 0.31 0.35 0.35 0.39 0.38 0.32 0.29 0.30 0.28 0.30 0.32 0.30 0.26 0.23 0.22 0.22 0.22 0.23 0.24 0.23 0.21 0.21 0.21 0.20 0.19 0.20 0.23 0.25 0.24 0.25
0.56 0.55 0.46 0.44 0.40 0.45 0.43 0.32 0.27 0.27 0.29 0.29 0.28 0.30 0.30 0.31 0.33 0.34 0.34 0.35 0.34 0.32 0.28 0.30 0.32 0.28 0.23 0.19 0.20 0.22 0.20 0.20 0.20 0.20 0.19 0.19 0.20 0.19 0.19 0.19 0.20 0.21 0.22 0.23
0.61 0.58 0.50 0.48 0.51 0.52 0.48 0.40 0.34 0.31 0.32 0.32 0.29 0.30 0.32 0.34 0.35 0.35 0.33 0.30 0.33 0.32 0.26 0.28 0.31 0.29 0.24 0.22 0.24 0.24 0.20 0.21 0.21 0.19 0.18 0.18 0.19 0.19 0.20 0.21 0.19 0.19 0.20 0.20
0.67 0.66 0.58 0.53 0.51 0.49 0.47 0.47 0.48 0.44 0.40 0.37 0.32 0.31 0.32 0.32 0.32 0.33 0.30 0.29 0.29 0.28 0.25 0.26 0.27 0.27 0.24 0.23 0.25 0.26 0.22 0.22 0.22 0.22 0.19 0.19 0.20 0.20 0.20 0.20 0.20 0.20 0.20 0.20
0.68 0.66 0.61 0.52 0.47 0.43 0.47 0.50 0.50 0.48 0.46 0.42 0.37 0.33 0.32 0.33 0.30 0.30 0.30 0.30 0.30 0.29 0.27 0.30 0.31 0.30 0.28 0.27 0.29 0.29 0.23 0.19 0.21 0.21 0.20 0.20 0.19 0.18 0.18 0.19 0.20 0.20 0.20 0.21